STARLINK-1067, 44771

Orbit data source: Space-Track

STARLINK-1067, 44771 is a payload satellite owned by SpaceX/Seattle (US) in LEO that was launched on Mon, 11 Nov 2019 UTC via an FALCON 9 launch vehicle from the Air Force Eastern Test Range (AFETR). Payload-class satellites include a variety of spacecraft equipped with specific instruments for various scientific and technological missions. These include communications satellites like Starlink; space stations such as the ISS; scientific satellites like the Hubble; Earth observation satellites from companies like Planet Labs, Umbra, and HawkEye 360; GPS; miniature CubeSats for education and research; and military/defense satellites.

Loading next visibility...
Identifier
44771, 2019-074BL
Orbit
LEO
Last TLE update
17 hours ago
Origin
Manufacturer
SpaceX/Seattle
Mission
Operational Commercial Communications
Bus & Motor
STARLINK, Unknown motor
Mass
260 kg wet, ~248 kg dry
Launch date (UTC)
2019-11-11 (6 years ago)
Launch vehicle
FALCON 9
Launch site
Air Force Eastern Test Range (AFETR)
Object type
Payload
Rocket body
Debris
Shape & HBR
Box + 1 Pan, 8.86 m
Radar Cross Section
13.562 m², Large (>1 m²)

Expand to show TLE details & history

TLE from 17 hours ago
0 STARLINK-1067
1 44771U 19074BL  25182.48975126  .00002412  00000-0  18075-3 0  9997
2 44771  53.0543 274.3007 0001029  93.1762 266.9344 15.06406764310500
Epoch: 2025-07-01T11:45Z
TLE epoch observation values (Epoch: 2025-07-01T11:45:14.508Z)
Latitude
-0.0001°
Longitude
178.20571°
Altitude
548.108 km
Speed
7.589 km/s
True Right ascension
18h 17m 12s
True Declination
0° 00' 00"
Sunlit
Object was in full shadow at epoch
Visualization orbit readout
Latitude
-9.45567°
Longitude
2.22382°
Altitude
549.847 km
Speed
7.588 km/s
Apparent Right ascension
05h 35m 01s
Apparent Declination
-24° 54' 33"
Sunlit
Object is in daylight
Visualization observer readout
Local Sidereal Time
16:12:53
Azimuth
304.902° NW
Elevation
-67.175°
Doppler factor
1
Orbital elements
Apogee altitude
548.174 km
Perigee altitude
546.749 km
Semi-major axis
6,925.599 km
Eccentricity
0.0001
Inclination
53.0543°
RAAN
274.3007°
Arg. of periapsis
93.1762°
True anomaly
Unknown
Mean anomaly
266.9344°
Eccentric anomaly
Unknown
Mean motion
3.7658 °/min
Orbital period
95.6 mins
BSTAR
0.00018075
Loading maneuver chart data...
Loading SW <> Apogee altitude chart data...

STARLINK-1067 Visibility forecast

Observer location: undefined°, undefined°

Span
Click to sort rows by Start time (UTC) header in descending order
Start Az.
Max El. time (UTC)
Max El. Az.
Max El.
End time (UTC)
End Az.
7 mins2025-07-02 08:37:28.130Z218.861° SW2025-07-02 08:40:28.130Z174.782° S41.963°2025-07-02 08:44:28.130Z55.25° ENE
5 mins2025-07-02 10:18:28.130Z292.246° WNW2025-07-02 10:20:28.130Z330.664° NNW22.272°2025-07-02 10:23:28.130Z25.813° NE
4 mins2025-07-02 13:40:28.130Z347.105° N2025-07-02 13:42:28.130Z23.054° NE17.552°2025-07-02 13:44:28.130Z56.289° ENE
6 mins2025-07-02 15:19:28.130Z316.848° NNW2025-07-02 15:22:28.130Z49.085° ENE42.802°2025-07-02 15:25:28.130Z119.289° SE
|